{"data":{"norad_id":53277,"intl_designator":"2022-086AM","name":"STARLINK-4178","alt_names":[],"object_type":"PAYLOAD","status":"ACTIVE","operator":null,"country":"US","launch_date":"2022-07-24","launch_site_code":"AFETR","launch_vehicle":null,"mission":null,"orbit_class":"UNKNOWN","rcs_meters":null,"size_class":null,"mass_kg":null,"dimensions":null,"purposes":["comms"],"wikipedia_slug":null,"has_3d_model":false,"image_url":null,"decayed_at":null,"tle_current":{"epoch":"2026-09-19T20:16:22.118016Z","epoch_age_seconds":132027,"freshness":"FRESH","line1":"1 53277U 22086AM  26262.84470044 -.00001103  00000+0 -23795-4 0  9997","line2":"2 53277  53.1611  19.4103 0001336  91.6795 268.4359 15.31694551230687","mean_motion":15.31694551,"eccentricity":0.0001336,"inclination_deg":53.1611,"raan_deg":19.4103,"arg_perigee_deg":91.6795,"mean_anomaly_deg":268.4359,"bstar":-2.3795e-5,"rev_number":23068,"period_min":94.013522412799,"perigee_km":469.8412263226,"apogee_km":471.67125059592,"semimajor_km":6848.8932384593,"source":"CELESTRAK","updated_at":"2026-09-20T09:00:40.219140Z"}}}